Theta_e
321 321 321 321 320 318 317 317 317 317 318 317 317 316 316 316 316 317 317 317 317 316 316 316 317 318 319 310 308 322 324 322 320 316 310 308 306 305 302 303 303 301 302 303 305 305 305
321 321 321 320 319 318 317 317 317 316 317 317 316 317 317 316 316 317 317 317 316 316 315 316 318 319 316 303 315 321 318 316 314 313 311 310 306 307 303 302 301 302 302 303 304 304 304
319 320 319 319 318 318 317 317 317 317 317 317 316 316 317 316 316 317 317 316 315 315 315 316 319 319 311 307 317 320 318 314 315 312 309 310 309 306 305 302 304 303 299 302 303 303 302
318 318 317 317 317 316 316 316 316 317 317 317 316 315 317 316 316 316 316 316 315 315 315 317 320 317 306 315 318 314 317 314 316 315 312 312 311 307 304 305 303 299 300 297 302 302 303
316 316 316 316 315 314 315 315 315 315 316 316 316 315 316 316 316 315 315 317 316 317 317 319 319 314 305 314 310 313 314 310 311 311 311 311 309 304 304 299 299 299 295 296 298 303 301
316 316 315 315 314 313 313 314 315 315 315 316 315 314 315 316 316 315 313 316 319 317 317 317 313 307 307 304 309 311 313 312 307 308 307 306 305 301 302 299 293 294 295 296 296 301 303
315 314 314 314 314 313 313 313 313 314 314 314 314 314 314 315 314 314 312 312 311 308 309 304 304 304 305 309 312 309 312 308 307 305 300 303 298 297 298 298 298 296 296 295 299 303 300
313 313 312 312 312 311 311 312 312 313 313 313 314 314 314 314 313 313 315 310 307 308 302 306 306 306 307 309 302 307 312 303 302 298 301 300 297 299 299 298 297 297 295 296 300 301 300
311 311 311 310 310 310 310 310 310 311 312 312 312 313 314 313 313 314 312 309 314 310 305 301 303 304 305 307 302 304 308 305 301 298 299 296 299 300 298 297 296 298 296 296 296 299 302
310 310 309 309 309 309 309 309 310 311 311 311 311 312 313 311 311 313 310 314 315 312 300 295 299 303 305 304 300 308 309 305 301 297 299 298 299 298 299 297 299 295 300 298 297 296 293
309 309 309 309 309 309 309 308 309 309 311 311 311 312 312 310 315 311 311 315 315 313 291 296 299 308 305 301 301 303 310 306 300 299 300 297 298 298 297 298 300 297 300 298 298 296 296
309 308 309 309 308 308 308 308 308 309 310 310 311 312 310 314 317 312 314 314 314 299 288 294 299 298 299 301 299 303 303 308 307 300 301 300 303 301 300 301 301 301 299 299 299 297 290
308 308 308 308 307 307 307 308 308 309 310 310 311 310 311 315 310 314 315 312 297 292 296 294 295 298 297 296 296 299 298 299 298 293 294 298 297 300 301 298 301 299 297 291 291 290 290
308 308 309 308 307 306 307 307 308 309 309 310 309 307 308 316 314 313 311 304 292 292 294 298 297 297 294 297 295 297 296 296 300 297 295 291 291 296 299 297 295 296 296 291 283 287 290
307 307 308 307 307 307 307 307 307 308 308 308 307 318 320 317 313 313 306 298 295 295 296 295 297 293 293 295 294 295 295 295 297 299 292 292 291 300 300 300 299 296 293 298 291 293 289
306 306 307 307 307 307 307 307 308 308 308 308 313 315 313 318 315 312 305 294 297 298 299 297 292 294 291 293 292 294 293 297 296 299 301 296 289 297 298 300 301 298 300 291 291 283 283
305 305 305 305 306 306 307 307 307 308 307 307 315 309 313 318 315 310 301 298 298 300 300 297 295 294 294 293 293 292 293 296 298 297 300 299 293 294 298 296 295 295 294 294 294 291 284
305 305 305 304 305 306 306 306 307 308 306 310 312 305 314 318 307 305 300 298 296 299 300 298 299 297 295 294 293 292 292 295 300 300 294 298 295 290 293 300 301 299 297 295 288 288 290
304 304 304 304 304 305 305 306 307 307 307 310 306 307 313 313 299 300 302 298 298 298 298 297 296 297 298 295 290 294 295 298 300 298 296 298 293 287 291 297 299 296 296 296 295 292 286
303 303 303 304 304 305 305 306 307 307 307 309 306 300 304 306 305 301 297 299 297 300 298 299 299 299 296 295 298 294 295 298 299 298 300 299 293 290 287 292 295 293 295 295 294 285 290
303 303 303 303 303 304 305 306 306 306 306 310 305 300 301 297 299 299 300 297 296 296 300 301 298 296 295 287 295 295 295 296 298 299 299 299 290 293 292 293 293 291 291 294 292 292 286
303 303 303 303 303 303 304 305 306 306 305 307 301 299 302 300 298 298 295 298 295 297 298 296 297 299 299 294 295 292 297 297 295 298 297 298 291 293 291 295 293 292 295 295 296 296 295
302 302 303 303 302 303 304 304 305 306 307 304 305 307 302 298 296 296 297 296 296 298 299 300 300 299 297 299 301 302 302 301 300 297 295 292 290 287 286 293 292 288 292 294 295 295 294
301 302 302 302 303 303 303 303 304 305 306 306 305 304 299 295 296 294 294 296 296 298 297 300 301 298 301 305 303 303 302 301 300 300 300 292 290 289 287 290 282 294 297 295 293 293 295
301 301 301 302 302 302 303 303 304 304 306 306 307 303 300 294 295 295 296 297 299 299 298 298 300 302 304 301 296 294 296 296 298 301 299 298 293 286 284 287 290 294 295 290 286 287 296
301 302 301 301 302 302 302 302 304 304 305 305 306 308 302 295 297 297 294 296 294 296 296 298 302 305 302 297 294 289 288 291 290 293 299 297 296 287 286 280 280 291 295 296 294 286 293
300 301 302 302 301 301 302 303 303 304 304 304 304 309 302 294 298 298 296 294 298 296 293 295 297 298 301 293 290 291 291 293 288 288 290 291 292 285 286 284 289 297 297 298 285 289 294
300 300 300 301 301 301 302 302 303 303 303 303 302 306 300 294 297 299 300 297 297 296 289 296 294 295 294 291 293 292 291 293 291 293 288 288 287 287 288 285 283 299 296 287 296 294 293
299 299 299 300 301 301 301 302 303 303 304 304 300 305 305 297 297 303 303 303 302 301 296 296 294 294 297 294 297 296 291 292 291 284 296 288 292 286 287 288 302 303 301 302 297 294 294
Wind_Speed
18 20 22 23 23 25 24 22 21 20 20 18 17 18 18 16 16 15 13 12 10 6 5 6 7 7 7 8 10 5 1 3 6 3 6 2 4 1 2 0 3 8 2 5 8 12 14
19 20 22 22 23 24 25 26 24 24 21 22 20 18 17 13 12 13 14 13 10 6 5 5 6 7 8 14 3 2 3 4 5 5 6 8 6 6 2 2 6 2 8 11 12 11 10
22 22 23 23 24 22 25 27 26 25 25 25 24 21 19 16 11 9 10 8 7 5 4 5 6 7 12 9 3 0 3 3 4 5 2 4 4 4 4 3 1 6 12 10 8 5 10
22 22 24 24 24 24 24 25 27 25 25 25 27 25 20 17 15 12 7 3 4 3 3 4 7 6 10 3 1 1 1 4 2 2 3 1 4 3 4 1 10 10 7 8 11 9 7
22 23 23 24 24 25 24 24 26 26 26 27 26 26 24 20 16 13 4 2 4 6 5 6 8 5 8 5 5 6 3 2 2 3 3 4 6 4 7 8 10 9 8 11 8 11 8
21 23 24 24 25 25 25 25 24 25 26 25 26 26 24 22 18 13 5 5 7 6 6 4 3 7 10 5 5 4 3 3 3 5 9 7 5 9 10 7 8 11 14 12 14 7 16
23 24 25 25 26 26 26 26 26 24 27 27 27 25 24 21 20 13 9 6 7 6 13 13 8 7 7 9 3 10 9 6 4 7 9 5 10 7 10 7 9 12 15 17 16 13 15
23 23 24 25 26 26 26 27 27 26 28 27 26 26 24 20 17 13 7 4 6 7 7 6 8 7 4 10 3 11 14 5 7 10 7 9 9 4 7 10 12 14 17 17 15 10 16
22 23 24 24 24 23 25 25 26 27 27 28 26 27 25 21 15 5 7 7 6 2 3 5 5 7 9 7 4 10 12 9 8 9 8 9 11 9 9 12 12 14 16 17 20 18 17
22 23 23 24 23 24 26 27 26 26 28 29 28 27 24 21 3 3 3 7 6 3 6 4 2 5 6 2 3 4 10 6 4 7 8 7 3 6 11 14 13 18 10 12 17 14 12
21 22 23 22 23 25 25 27 27 28 27 29 30 27 22 12 4 3 7 6 5 5 5 4 3 2 2 8 8 5 9 4 6 8 6 5 9 12 14 10 9 11 10 15 17 19 20
21 22 23 22 24 25 26 26 27 28 28 27 29 26 20 4 2 5 5 3 5 7 2 3 1 5 5 8 2 7 5 1 3 7 5 10 7 5 6 7 7 12 15 19 21 14 12
20 22 22 23 24 25 26 27 27 28 28 28 28 23 9 4 6 9 3 5 6 5 3 3 4 6 5 8 1 9 8 6 7 7 6 11 4 1 6 10 10 6 13 8 5 9 10
20 21 21 22 23 26 26 27 28 29 30 30 30 17 4 4 6 4 5 6 5 4 3 2 4 5 4 10 5 11 8 4 4 6 11 7 2 2 2 11 9 16 8 7 8 9 15
20 21 22 24 23 24 25 27 29 29 31 30 28 2 0 10 5 4 6 3 5 2 3 6 5 3 1 2 6 7 7 4 4 4 7 7 5 14 10 5 5 4 8 9 13 19 17
20 21 22 23 23 25 25 27 29 31 31 29 6 3 8 14 4 5 3 3 2 1 4 2 3 2 6 8 7 10 4 3 1 2 3 5 10 7 3 11 14 13 7 5 4 6 13
18 20 21 23 23 25 26 27 28 30 35 28 4 4 9 13 5 1 2 4 2 4 2 3 2 5 4 7 7 7 3 2 2 4 5 10 5 5 17 6 10 6 9 8 7 9 8
18 19 21 22 23 24 26 26 28 29 34 8 4 1 10 9 1 2 4 3 1 1 1 2 4 5 5 4 8 5 6 2 1 7 11 9 7 14 22 21 14 16 17 14 7 10 8
17 18 20 21 23 23 25 26 28 29 26 8 5 4 6 9 3 4 2 2 2 2 2 2 3 3 2 5 3 8 8 2 5 11 5 7 4 9 9 6 3 7 6 12 15 9 17
15 17 18 20 22 23 25 26 28 30 27 6 5 2 4 6 4 4 4 1 2 1 5 3 6 5 5 7 9 9 10 6 1 9 13 9 10 15 11 17 18 23 23 21 17 7 17
14 16 17 19 20 22 23 26 28 30 31 6 5 5 4 5 4 6 3 2 4 2 3 4 4 4 2 3 13 12 5 6 13 11 7 7 9 15 20 23 24 26 27 27 22 22 18
13 14 16 17 19 20 22 23 25 29 34 4 5 5 4 3 5 6 2 2 6 1 4 5 9 5 8 11 12 16 19 15 11 9 7 3 7 12 19 21 23 26 26 23 24 22 23
12 13 15 16 17 18 20 21 22 24 22 5 4 1 5 1 3 5 3 4 5 6 8 8 11 13 16 16 13 15 18 21 19 17 14 5 3 3 11 15 20 19 7 5 11 12 14
11 13 13 15 16 17 17 19 19 19 20 6 5 5 4 3 4 6 7 11 14 15 17 10 16 16 9 13 21 22 23 19 17 17 15 8 4 3 9 16 9 3 2 5 11 13 20
10 12 13 14 15 15 16 16 16 16 17 6 4 4 4 6 6 11 4 10 9 12 16 18 14 6 11 14 13 11 8 8 10 11 12 15 7 4 5 10 20 19 5 2 2 17 17
9 10 12 13 13 14 14 15 14 14 14 8 3 3 4 6 1 5 10 11 11 10 12 10 4 9 7 9 8 9 5 4 4 4 6 9 12 4 4 8 8 4 5 0 9 12 3
10 11 11 12 13 13 14 14 14 13 12 7 4 3 4 7 5 5 6 10 8 8 7 14 7 6 3 4 5 6 7 2 5 4 2 5 7 12 12 10 13 1 2 6 7 7 18
9 10 11 12 13 13 13 13 14 14 12 7 6 5 3 4 13 16 15 15 12 10 7 9 9 3 5 5 4 3 4 3 5 7 3 5 4 6 5 6 9 7 4 3 9 13 12
8 10 10 12 12 13 13 13 13 14 14 9 5 1 3 5 11 21 23 23 26 23 14 4 6 10 4 4 3 4 6 6 10 7 6 6 7 3 6 7 14 20 17 11 7 12 10
Wind_Direction
4 1 0 358 360 4 4 6 7 5 5 8 7 358 347 343 339 332 325 318 307 293 280 282 293 295 257 118 88 90 242 226 269 267 35 38 61 259 206 122 250 253 166 244 267 275 278
4 2 0 359 2 3 2 2 3 4 3 4 3 358 354 348 339 327 320 312 301 295 276 281 294 293 230 94 55 171 226 245 24 5 33 24 28 4 79 314 284 65 280 278 272 280 271
7 5 3 3 5 3 2 1 360 356 360 1 360 356 355 351 350 340 323 304 290 285 273 293 298 273 79 80 12 59 267 6 5 359 35 37 359 297 350 248 6 294 280 269 243 208 288
10 7 6 5 3 3 1 359 358 355 353 355 356 354 354 352 351 357 348 336 144 189 249 287 302 260 80 81 22 275 250 197 201 225 263 313 258 289 284 16 231 259 245 253 144 255 272
15 12 9 6 4 2 359 357 356 356 355 356 353 352 349 348 353 3 35 92 148 168 208 236 239 273 85 147 37 23 352 323 293 182 227 240 244 306 213 261 260 196 303 305 302 197 274
10 9 7 6 4 2 360 358 354 350 353 353 354 351 347 343 347 347 340 216 175 193 208 244 242 205 57 26 34 331 80 274 277 264 214 217 262 261 239 294 310 317 304 302 297 307 296
10 9 7 5 3 1 358 358 355 352 351 352 351 350 345 340 335 335 303 227 200 153 48 44 43 63 54 2 287 21 355 299 277 263 277 342 291 291 339 308 301 292 288 293 296 316 297
11 9 7 4 2 360 357 356 355 353 350 349 348 346 342 334 326 314 277 58 39 354 102 57 60 54 28 346 295 24 349 320 306 294 310 254 264 350 320 284 280 282 287 286 304 305 318
8 8 6 3 359 358 356 354 353 352 349 347 346 344 339 331 320 290 42 53 344 240 243 75 46 22 1 326 39 5 354 324 282 280 281 285 305 340 284 289 285 278 289 297 303 311 279
9 8 6 2 357 356 356 355 351 349 349 345 343 341 335 328 292 2 82 334 282 228 233 62 35 65 352 80 188 12 3 323 260 313 316 278 51 296 290 288 294 290 332 310 297 303 302
9 6 5 1 358 355 354 354 351 348 345 344 339 337 334 334 339 10 343 330 163 216 239 67 63 349 65 29 322 63 5 315 312 319 283 45 313 315 294 313 313 293 327 296 290 282 289
8 5 3 1 360 355 352 351 350 346 343 338 335 331 328 222 225 25 324 184 220 227 123 121 346 344 342 19 39 342 344 317 308 301 260 281 318 287 336 304 280 313 287 285 264 265 255
8 6 4 3 2 356 352 349 346 344 338 335 332 325 308 295 342 333 289 218 225 284 142 59 344 338 337 350 352 359 348 42 24 321 355 317 192 205 303 315 304 264 310 301 265 201 251
7 4 3 2 0 359 353 347 345 340 339 335 328 317 153 8 331 276 219 222 255 50 28 57 320 322 341 4 6 347 346 9 90 351 308 343 186 28 24 307 294 300 292 284 294 301 311
7 5 2 1 360 357 353 347 343 342 339 338 314 162 136 358 338 241 239 259 30 54 8 333 303 292 51 6 333 325 358 327 7 357 354 321 258 320 310 320 256 49 243 4 291 271 262
7 4 2 1 359 357 354 348 343 342 340 338 316 271 43 347 327 244 252 71 109 74 334 293 319 332 325 345 326 341 320 100 326 298 349 333 298 300 318 285 251 243 325 267 228 278 299
7 5 3 1 359 356 353 349 346 344 342 328 269 228 24 347 253 243 53 71 134 89 329 280 310 290 299 320 322 321 289 265 244 337 298 294 272 272 295 251 295 233 234 230 303 279 285
8 6 6 2 0 356 353 348 348 349 343 331 301 227 7 328 260 17 58 11 352 259 226 278 277 281 285 317 296 287 261 268 32 318 304 310 289 287 289 287 275 269 265 262 250 265 250
9 9 4 4 2 359 351 349 349 349 357 315 359 345 20 312 26 52 80 173 263 261 302 272 259 250 283 283 283 271 276 321 267 292 306 18 254 299 299 152 152 240 281 274 272 275 254
5 5 5 4 3 0 353 352 351 349 350 294 309 334 68 59 54 351 356 163 267 217 276 276 294 278 269 269 241 266 269 296 276 294 296 301 233 242 262 289 309 294 288 283 261 243 280
5 2 5 5 5 3 358 355 353 350 342 290 356 56 11 354 60 342 299 310 275 285 264 259 209 247 304 274 313 263 270 277 279 302 245 239 255 252 256 268 276 275 276 274 265 266 260
5 5 7 6 6 2 2 0 358 352 336 49 356 348 337 305 302 300 102 174 289 256 273 264 257 246 289 268 230 279 291 293 282 263 247 266 264 289 276 281 271 273 276 275 273 277 284
2 2 4 2 7 3 5 4 5 359 344 29 18 115 291 96 304 284 16 324 306 309 276 265 288 288 289 298 307 292 286 279 268 262 266 267 252 257 280 297 308 283 295 277 269 284 282
358 359 2 1 1 3 3 5 10 3 359 347 23 315 305 300 289 316 308 296 287 285 265 275 296 280 285 320 298 276 256 254 255 247 234 216 205 241 285 303 262 100 197 300 283 288 291
349 356 1 358 359 1 2 359 6 4 355 337 1 340 330 295 312 290 288 302 290 276 254 276 289 323 330 292 288 275 213 222 218 225 212 215 235 266 271 286 283 276 153 227 250 294 298
338 348 356 355 350 352 354 359 359 359 357 328 5 324 310 308 32 352 311 298 289 299 288 257 224 307 291 280 258 263 280 321 225 198 212 197 225 216 291 281 283 24 151 29 298 276 93
327 338 342 346 346 346 347 349 353 350 352 332 300 334 292 289 280 291 283 323 309 289 300 302 320 297 227 241 251 268 269 19 257 263 178 218 217 243 263 258 264 163 68 310 257 340 324
326 330 328 329 338 338 341 343 340 344 343 331 305 288 242 260 292 280 271 269 276 260 258 293 323 145 270 253 273 333 288 317 273 256 206 233 246 235 233 253 272 77 326 237 300 307 302
315 319 320 319 330 331 331 337 336 336 331 323 276 9 230 232 274 302 285 275 270 267 272 244 258 314 268 264 266 305 254 263 279 273 203 245 221 288 208 246 301 303 298 289 325 289 308